TimeCST,TemperatureF,Dew PointF,Humidity,Sea Level PressureIn,VisibilityMPH,Wind Direction,Wind SpeedMPH,Gust SpeedMPH,PrecipitationIn,Events,Conditions,WindDirDegrees,DateUTC
12:53 AM,30.0,21.0,69,30.18,7.0,SE,4.6,-,N/A,,Clear,130,2013-03-03 06:53:00
1:53 AM,28.0,21.0,75,30.16,7.0,SE,4.6,-,N/A,,Clear,130,2013-03-03 07:53:00
2:53 AM,28.0,19.9,72,30.13,7.0,SE,6.9,-,N/A,,Clear,130,2013-03-03 08:53:00
3:53 AM,28.0,19.9,72,30.11,7.0,SE,4.6,-,N/A,,Clear,130,2013-03-03 09:53:00
4:53 AM,27.0,19.9,75,30.08,8.0,ESE,5.8,-,N/A,,Mostly Cloudy,120,2013-03-03 10:53:00
5:53 AM,28.4,19.4,69,30.05,10.0,SE,6.9,-,N/A,,Mostly Cloudy,140,2013-03-03 11:53:00
6:53 AM,28.9,19.9,69,30.05,10.0,SE,6.9,-,N/A,,Clear,140,2013-03-03 12:53:00
7:53 AM,30.0,21.0,69,30.04,10.0,SE,9.2,-,N/A,,Clear,130,2013-03-03 13:53:00
8:53 AM,33.1,21.9,64,30.03,10.0,SE,8.1,-,N/A,,Clear,140,2013-03-03 14:53:00
9:53 AM,37.0,23.0,57,30.00,10.0,South,13.8,-,N/A,,Clear,170,2013-03-03 15:53:00
10:53 AM,39.0,24.1,55,29.99,10.0,South,10.4,-,N/A,,Clear,170,2013-03-03 16:53:00
11:53 AM,41.0,27.0,57,29.96,10.0,SSE,12.7,-,N/A,,Clear,160,2013-03-03 17:53:00
12:53 PM,43.0,27.0,53,29.92,10.0,South,11.5,-,N/A,,Clear,170,2013-03-03 18:53:00
1:53 PM,43.0,28.0,56,29.89,10.0,SSE,12.7,-,N/A,,Clear,150,2013-03-03 19:53:00
2:53 PM,43.0,28.0,56,29.86,10.0,SE,11.5,-,N/A,,Clear,140,2013-03-03 20:53:00
3:53 PM,43.0,28.9,58,29.85,10.0,ESE,11.5,-,N/A,,Clear,120,2013-03-03 21:53:00
4:53 PM,44.1,28.9,55,29.83,10.0,ESE,10.4,-,N/A,,Clear,110,2013-03-03 22:53:00
5:53 PM,42.1,28.9,60,29.80,10.0,East,12.7,-,N/A,,Clear,90,2013-03-03 23:53:00
6:53 PM,41.0,28.0,60,29.82,10.0,ESE,13.8,-,N/A,,Clear,110,2013-03-04 00:53:00
7:53 PM,39.9,28.0,63,29.81,10.0,ESE,12.7,-,N/A,,Clear,110,2013-03-04 01:53:00
8:53 PM,39.9,28.0,63,29.79,10.0,ESE,13.8,-,N/A,,Clear,110,2013-03-04 02:53:00
9:53 PM,39.9,28.9,65,29.77,10.0,East,11.5,-,N/A,,Clear,100,2013-03-04 03:53:00
10:53 PM,39.0,28.9,67,29.75,10.0,East,8.1,-,N/A,,Clear,100,2013-03-04 04:53:00
11:53 PM,39.9,28.9,65,29.71,10.0,ESE,10.4,-,N/A,,Clear,120,2013-03-04 05:53:00